Manhattan, KS

5:00 AM CDT on September 26, 2017 (GMT -0500)
Manhattan Regional

Weather History for KMHK - May, 2012

Change the Weather History Date:

Thursday, May 24, 2012

  Actual Average Record
Temperature  
Mean Temperature 77 °F 66 °F  
Max Temperature 87 °F 79 °F 93 °F (2006)
Min Temperature 67 °F 54 °F 46 °F (2001)
Degree Days  
Heating Degree Days 0 2  
Month to date heating degree days 31 112  
Since 1 July heating degree days 4200 5293  
Cooling Degree Days 12 4  
Month to date cooling degree days 142 52  
Year to date cooling degree days 208 69  
Growing Degree Days 27 (Base 50)    
Moisture  
Dew Point 56 °F    
Average Humidity 50    
Maximum Humidity 68    
Minimum Humidity 31    
Precipitation  
Precipitation T in 0.18 in 2.94 in (2007)
Month to date precipitation 0.37 3.29  
Year to date precipitation 6.95 10.01  
Sea Level Pressure  
Sea Level Pressure 29.48 in    
Wind  
Wind Speed 8 mph (West)    
Max Wind Speed 23 mph    
Max Gust Speed 32 mph    
Visibility 10 miles    
Events Rain    
T = Trace of Precipitation, MM = Missing Value Source: NWS Daily Summary

Daily Weather History Graph

Daily Weather History Graph

Search for Another Location

Airport or City:

Trip Planner

Search our weather history database for the weather conditions in past years. The results will help you decide how hot, cold, wet, or windy it might be!

Date:

Astronomy

May. 24, 2012 Rise Set
Actual Time 6:06 AM CDT 8:41 PM CDT
Civil Twilight 5:35 AM CDT 9:12 PM CDT
Nautical Twilight 4:56 AM CDT 9:50 PM CDT
Astronomical Twilight 4:13 AM CDT 10:34 PM CDT
Moon 9:06 AM CDT (5/24) 11:42 PM CDT (5/24)
Length of Visible Light 15h 36m
Length of Day
14h 34m
Waxing Crescent, 12% of the Moon is Illuminated
May 24
Waxing Crescent
May 28
First Quarter
Jun 4
Full
Jun 11
Last Quarter
Jun 19
New

Hourly Weather History & Observations

Time (CDT) Temp. Heat Index Dew Point Humidity Pressure Visibility Wind Dir Wind Speed Gust Speed Precip Events Conditions
12:52 AM 78.1 °F - 55.9 °F 46% 29.37 in 10.0 mi South 18.4 mph 29.9 mph N/A   Clear
1:52 AM 77.0 °F - 57.0 °F 50% 29.36 in 10.0 mi South 16.1 mph 25.3 mph N/A   Clear
2:52 AM 75.9 °F - 57.9 °F 54% 29.33 in 10.0 mi South 18.4 mph 21.9 mph N/A   Clear
3:52 AM 75.9 °F - 57.9 °F 54% 29.36 in 10.0 mi SSW 6.9 mph - N/A   Partly Cloudy
4:52 AM 75.9 °F - 59.0 °F 56% 29.37 in 10.0 mi SSW 12.7 mph 17.3 mph N/A   Mostly Cloudy
5:52 AM 75.0 °F - 60.1 °F 60% 29.37 in 10.0 mi South 8.1 mph - N/A   Overcast
6:52 AM 75.0 °F - 61.0 °F 62% 29.35 in 10.0 mi South 12.7 mph 19.6 mph N/A   Mostly Cloudy
7:52 AM 73.9 °F - 62.1 °F 66% 29.39 in 10.0 mi SSW 8.1 mph - 0.00 in Rain Light Rain
8:52 AM 68.0 °F - 57.9 °F 70% 29.42 in 10.0 mi NW 9.2 mph - 0.00 in   Overcast
9:52 AM 68.0 °F - 57.0 °F 68% 29.44 in 10.0 mi North 5.8 mph - N/A   Overcast
10:52 AM 72.0 °F - 57.9 °F 61% 29.44 in 10.0 mi Calm Calm - N/A   Clear
11:52 AM 79.0 °F - 62.1 °F 56% 29.44 in 10.0 mi South 6.9 mph - N/A   Clear
12:52 PM 82.0 °F 83.0 °F 62.1 °F 51% 29.46 in 10.0 mi WSW 10.4 mph - N/A   Clear
1:52 PM 84.9 °F 84.4 °F 59.0 °F 41% 29.47 in 10.0 mi Variable 6.9 mph - N/A   Clear
2:52 PM 86.0 °F 85.0 °F 57.9 °F 38% 29.48 in 10.0 mi WNW 8.1 mph - N/A   Clear
3:52 PM 86.0 °F 84.5 °F 55.0 °F 35% 29.51 in 10.0 mi WNW 8.1 mph - N/A   Partly Cloudy
4:52 PM 86.0 °F 84.0 °F 53.1 °F 32% 29.53 in 10.0 mi WSW 6.9 mph - N/A   Clear
5:52 PM 84.9 °F - 51.1 °F 31% 29.55 in 10.0 mi NNW 6.9 mph - N/A   Clear
6:52 PM 84.9 °F - 50.0 °F 30% 29.57 in 10.0 mi North 3.5 mph - N/A   Clear
7:52 PM 80.1 °F - 52.0 °F 38% 29.58 in 10.0 mi North 5.8 mph - N/A   Clear
8:52 PM 73.9 °F - 52.0 °F 46% 29.64 in 10.0 mi NNW 3.5 mph - N/A   Clear
9:52 PM 73.0 °F - 48.9 °F 42% 29.67 in 10.0 mi NNW 3.5 mph - N/A   Scattered Clouds
10:52 PM 71.1 °F - 48.9 °F 45% 29.70 in 10.0 mi North 4.6 mph - N/A   Clear
11:52 PM 70.0 °F - 51.1 °F 51% 29.73 in 10.0 mi NNE 5.8 mph - N/A   Scattered Clouds